Regional Weather Roundup
Issued by NWS

Home | Current Version | Previous Version | Graphics & Text | Print | Product List | Glossary On
Versions: 1 2 3 4 5 6 7 8 9 10 11 12 13 14 15 16 17 18 19 20 21 22 23 24 25 26 27 28
000
ASUS45 KBOU 161510
RWRCO

WEATHER ROUNDUP FOR COLORADO
NATIONAL WEATHER SERVICE DENVER/BOULDER CO
800 AM MST SAT DEC 16 2017

NOTE: "FAIR" INDICATES FEW OR NO CLOUDS BELOW 12000 FEET WITH NO
SIGNIFICANT WEATHER AND/OR OBSTRUCTIONS TO VISIBILITY.

COZ001>005-013-030-031-161600-
...NORTHWEST COLORADO...

CITY           SKY/WX    TMP DP  RH WIND       PRES   REMARKS
CRAIG          FAIR      11   7  84 CALM      29.86F
HAYDEN         FAIR      20   8  60 SE12      29.87F WCI   8
MEEKER         FAIR      21  12  68 E3        29.84F
RABBIT EARS PA FAIR      28 -15  14 W5        29.88F WCI  23
STEAMBOAT SPGS FAIR      11   6  82 CALM      29.86F
WALDEN         FAIR      21   5  49 SE6       29.86S WCI  14
$$

COZ006>008-011-161600-
...WEST CENTRAL VALLEYS...

CITY           SKY/WX    TMP DP  RH WIND       PRES   REMARKS
GRAND JUNCTION FAIR      24   9  52 E5        29.87F WCI  18
MONTROSE       FAIR      22   9  57 SE8       29.90F WCI  12
EAGLE          FAIR       9   4  80 CALM      29.95F
RIFLE          FAIR      19   8  62 S3        29.90F
DELTA          FAIR      21   3  45 CALM      29.90S
NUCLA          FAIR      21  -6  30 CALM      29.93
$$

COZ017>023-064>068-161600-
...SOUTHWEST COLORADO...

CITY           SKY/WX    TMP DP  RH WIND       PRES   REMARKS
DURANGO        FAIR      14   9  80 NE7       29.91F WCI   4
CORTEZ         FAIR      15   4  61 NE8       29.90F WCI   4
PAGOSA SPRINGS FAIR      19   8  63 CALM      29.92F
TELLURIDE      FAIR      30   4  33 W3        29.91S
WOLF CREEK PAS FAIR      28  -2  26 SW8       30.02F WCI  20
$$

COZ009-010-012-014-032>034-037-058>063-161600-
...CENTRAL COLORADO...

CITY           SKY/WX    TMP DP  RH WIND       PRES   REMARKS
ASPEN          FAIR      19  12  74 VRB3      29.85S
BUENA VISTA    FAIR      21  12  68 W3        29.88F
COPPER MTN     NOT AVBL
BERTHOUD PASS  CLOUDY    25  14  63 S8        29.98S WCI  16
COTTONWOOD PAS FAIR      37   3  23 CALM      29.90F
GUNNISON       FAIR       6   1  80 CALM      29.98
KREMMLING      FAIR       9   3  78 CALM      29.94F
LEADVILLE      FAIR      21   1  41 CALM      29.89S
MONARCH PASS   FAIR      28   1  31 W21       30.07S WCI  15
SALIDA         FAIR      27   9  46 NW6       29.95S WCI  21
SUNLIGHT       CLOUDY    27  -9  20 S5        29.93F WCI  21
WILKERSON PASS FAIR      34  -9  15 CALM      29.98F
$$

COZ069>075-161600-
...SAN LUIS VALLEY/SANGRE DE CRISTO MOUNTAINS...

CITY           SKY/WX    TMP DP  RH WIND       PRES   REMARKS
ALAMOSA        FAIR       9   4  80 CALM      29.93F
DEL NORTE      FAIR      19   6  58 W13       29.92F WCI   6
LA VETA PASS   FAIR      27  -4  26 SW22        N/A  WCI  12
SAGUACHE       FAIR      18   5  57 SE6       29.93F WCI   9
$$

COZ035-036-038>040-161600-
...NORTHERN COLORADO FRONT RANGE...

CITY           SKY/WX    TMP DP  RH WIND       PRES   REMARKS
DENVER INTL AP MOCLDY    39  17  41 NW7       29.79R
DMNS CITY PARK NOT AVBL
AURORA         MOCLDY    39  16  38 S5        29.79R
FRONT RANGE AP MOCLDY    45  18  33 NE6       29.79R
ERIE MUNI ARPT FAIR      34  20  57 CALM      29.86R
BOULDER MUN AP FAIR      37  18  44 E6        29.80R
CENTENNIAL     MOCLDY    36  18  48 CALM      29.78R
BROOMFIELD     MOCLDY    39  16  38 N14       29.80R
FORT COLLINS   FAIR      38  19  46 N3        29.80R
LONGMONT       FAIR      37  20  49 CALM      29.82R
$$

COZ041-046-047-076>085-087-088-161600-
...PIKES PEAK/PALMER DIVIDE AND SOUTHERN FOOTHILLS...

CITY           SKY/WX    TMP DP  RH WIND       PRES   REMARKS
COLO. SPRINGS  MOCLDY    41  10  28 N10       29.77R
A. F. ACADEMY  FAIR      33  10  38 N9        29.78R WCI  25
SCHRIEVER AFB  FAIR      46   6  19 N14       29.76S
CHEYENNE MTN   MOCLDY    49   9  19 NW8       29.74R
ELLICOTT         N/A    N/A N/A N/A NE12      29.73F
FALCON         FAIR      43   5  20 N10       29.80S
FORT CARSON    FAIR      42  13  31 NW12      29.74R
LIMON          FAIR      41  13  31 N9        29.77R
MONUMENT HILL  FAIR      32  12  43 CALM      29.83R
CANON CITY     FAIR      45  10  24 W20       29.73F
WALSENBURG     FAIR      48   5  17 W9        29.75S
TRINIDAD       FAIR      34  14  43 W10       29.74F WCI  26
$$

COZ042>045-048>051-090-091-161600-
...NORTHEAST COLORADO...

CITY           SKY/WX    TMP DP  RH WIND       PRES   REMARKS
GREELEY ARPT   FAIR      32  19  58 N5        29.81R WCI  27
AKRON          FAIR      38   8  29 NE12      29.78R
BURLINGTON     FAIR      36  12  37 N9        29.75R
WRAY           FAIR      30  14  51 NW3       29.79R
YUMA           FAIR      34  12  40 N7        29.78S WCI  28
STERLING       FAIR      19  14  79 CALM      29.78S
HOLYOKE        FAIR      34  18  51 N9        29.80S WCI  26
FORT MORGAN    FAIR      26  17  66 NE6       29.80R WCI  20
$$

COZ086-089-092>099-161600-
...SOUTHEAST COLORADO...

CITY           SKY/WX    TMP DP  RH WIND       PRES   REMARKS
PUEBLO         FAIR      29  15  56 W5        29.71F WCI  24
LA JUNTA       FAIR      30  13  49 W5        29.73R WCI  25
LAMAR          FAIR      21  15  78 W3        29.71F
SPRINGFIELD      N/A     35  16  45 W3        29.70S
$$




USA.gov is the U.S. government's official web portal to all federal, state and local government web resources and services.